Probability
0 0 0 0 0 0 0 0 0 0 0 0 0 0 0 0 0 0 0 0 0 0 0 0 0 0 0 0 0 0 0 0 0 0 0 0 0 0 0 0 0 0 0
0 0 0 0 0 0 0 0 0 0 0 0 0 0 0 0 0 0 0 0 0 0 0 0 0 0 0 0 0 0 0 0 0 0 0 0 0 0 0 0 0 0 0
0 0 0 0 0 0 0 0 0 0 0 0 0 0 0 0 0 0 0 0 0 0 0 0 0 0 0 0 0 0 0 0 0 0 0 0 0 0 0 0 0 0 0
0 0 0 0 0 0 0 0 0 0 0 0 0 0 0 0 0 0 0 0 0 0 0 0 0 0 0 0 0 0 0 0 0 0 0 0 0 0 0 0 0 0 0
0 0 0 0 0 0 0 0 0 0 0 0 0 0 0 0 0 0 0 0 0 0 0 0 0 0 0 0 0 0 0 0 0 0 0 0 0 0 0 0 0 0 0
0 0 0 0 0 0 0 0 0 0 0 0 0 0 0 0 0 0 0 0 0 0 0 0 0 0 0 0 0 0 0 0 0 0 0 0 0 0 0 0 0 0 0
0 0 0 0 0 0 0 0 0 0 0 0 0 0 0 0 0 0 0 0 0 0 0 0 0 0 0 0 0 0 0 0 0 0 0 0 0 0 0 0 0 0 0
0 0 0 0 0 0 0 0 0 0 0 0 0 0 0 0 0 0 0 0 0 0 0 0 0 0 0 0 0 0 0 0 0 0 0 0 0 0 0 0 0 0 0
0 0 0 0 0 0 0 0 0 0 0 0 0 0 0 0 0 0 0 0 0 0 0 0 0 0 0 0 0 0 0 0 0 0 0 0 0 0 0 0 0 0 0
0 0 0 0 0 0 0 0 0 0 0 0 0 0 0 0 0 0 0 0 0 0 0 0 0 0 0 0 0 0 0 0 0 0 0 0 0 0 0 0 0 0 0
0 0 0 0 0 0 0 0 0 0 0 0 0 0 0 0 0 0 0 0 0 0 0 0 0 0 0 0 0 0 0 0 0 0 0 0 0 0 0 0 0 0 0
0 0 0 0 0 0 0 0 0 0 0 0 0 0 0 0 0 0 0 0 0 0 0 0 0 0 0 0 0 0 0 0 0 0 0 0 0 0 0 0 0 0 0
0 0 0 0 0 0 0 0 0 0 0 0 0 0 0 0 0 0 0 0 0 0 0 0 0 0 0 0 0 0 0 0 0 0 0 0 0 0 0 0 0 0 0
0 0 0 0 0 0 0 0 0 0 0 0 0 0 0 0 0 0 0 0 0 0 0 0 0 0 0 0 0 0 0 0 0 0 0 0 0 0 0 0 0 0 0
0 0 0 0 0 0 0 0 0 0 0 0 0 0 0 0 0 0 0 0 0 0 0 0 0 0 0 0 0 0 0 0 0 0 0 0 0 0 0 0 0 0 0
0 0 0 0 0 0 0 0 0 0 0 0 0 0 0 0 0 0 0 0 0 0 0 0 0 0 0 0 0 0 0 0 0 0 0 0 0 0 0 0 0 0 0
0 0 0 0 0 0 0 0 0 0 0 0 0 0 0 0 0 0 0 0 0 0 0 0 0 0 0 0 0 0 0 0 0 0 0 0 0 0 0 0 0 0 0
0 0 0 0 0 0 0 0 0 0 0 0 0 0 0 0 0 0 0 0 0 0 0 0 0 0 0 0 0 0 0 0 0 0 0 0 0 0 0 0 0 0 0
0 0 0 0 0 0 0 0 0 0 0 0 0 0 0 0 0 0 0 0 0 0 0 0 0 0 0 0 0 0 0 0 0 0 0 0 0 0 0 0 0 0 0
0 0 0 0 0 0 0 0 0 0 0 0 0 0 0 0 0 0 0 0 0 0 0 0 0 0 0 0 0 0 0 0 0 0 0 0 0 0 0 0 0 0 0
0 0 0 0 0 0 0 0 0 0 0 0 0 0 0 0 0 0 0 0 0 0 0 0 0 0 0 0 0 0 0 0 0 0 0 0 0 0 0 0 0 0 0
0 0 0 0 0 0 0 0 0 0 0 0 0 0 0 0 0 0 0 0 0 0 0 0 0 0 0 0 0 0 0 0 0 0 0 0 0 0 0 0 0 0 0
0 0 0 0 0 0 0 0 0 0 0 0 0 0 0 0 0 0 0 0 0 0 0 0 0 0 0 0 0 0 0 0 0 0 0 0 0 0 0 0 0 0 0
0 0 0 0 0 0 0 0 0 0 0 0 0 0 0 0 0 0 0 0 0 0 0 0 0 0 0 0 0 0 0 0 0 0 0 0 0 0 0 0 0 0 0
0 0 0 0 0 0 0 0 0 0 0 0 0 0 0 0 0 0 0 0 0 0 0 0 0 0 0 0 0 0 0 0 0 0 0 0 0 0 0 0 0 0 0
0 0 0 0 0 0 0 0 0 0 0 0 0 0 0 0 0 0 0 0 0 0 0 0 0 0 0 0 0 0 0 0 0 0 0 0 0 0 0 0 0 0 0
Wind_Speed
5 5 5 5 6 6 6 7 7 7 7 8 8 8 7 7 7 7 7 7 7 7 6 7 7 6 5 4 4 4 4 4 5 4 3 3 4 4 4 4 5 5 5
4 4 5 5 5 5 6 6 6 7 7 7 7 7 7 7 7 8 8 8 8 8 7 7 7 5 6 5 5 6 5 5 5 6 4 4 5 5 5 5 5 5 5
4 4 5 5 5 5 6 6 6 6 6 7 7 8 8 8 8 8 8 8 8 8 8 8 7 7 7 5 6 5 5 4 5 5 5 4 4 3 5 5 6 5 5
4 4 5 5 5 5 5 5 5 6 6 7 7 7 7 7 7 7 7 7 7 7 7 7 7 8 8 7 6 6 5 5 5 5 5 4 4 3 4 4 5 4 5
4 4 4 4 4 4 4 4 4 5 6 6 6 6 6 6 6 7 7 7 7 6 6 6 7 7 8 7 5 6 6 5 4 5 5 5 4 3 4 4 5 5 5
4 4 4 3 3 3 3 4 4 4 5 5 6 6 6 5 7 9 7 6 6 7 7 6 6 6 7 8 8 8 7 7 6 6 5 6 6 5 4 4 4 4 4
3 3 3 3 3 3 3 3 4 4 4 5 5 6 6 6 8 9 9 6 6 6 6 6 5 4 6 6 7 7 7 8 8 7 7 8 6 5 4 5 5 5 5
2 2 2 3 3 3 3 4 4 3 4 4 4 5 5 5 7 8 8 7 5 5 5 5 5 5 5 5 5 5 6 6 7 6 7 6 5 4 5 5 5 5 5
2 2 3 3 3 3 4 4 3 3 3 3 3 4 4 4 5 6 6 4 4 4 4 4 4 5 6 6 5 5 5 5 5 6 6 6 6 6 5 3 3 4 5
2 2 2 2 2 3 3 3 2 2 2 2 1 2 2 2 2 4 5 3 4 3 3 3 4 5 5 6 5 5 5 4 3 3 4 5 5 5 6 5 5 5 4
2 1 1 1 2 2 2 1 1 1 1 1 1 1 1 1 2 2 3 3 3 3 3 3 3 5 6 6 6 4 5 3 2 3 3 3 3 3 3 4 4 5 5
1 1 1 1 1 1 1 1 1 2 2 1 1 1 1 1 1 2 3 3 2 2 2 2 2 3 5 5 4 4 4 3 2 2 3 3 3 3 3 3 4 5 6
1 1 1 1 1 0 1 1 1 1 2 2 1 1 1 1 1 2 3 3 3 2 1 1 1 2 3 3 3 2 2 2 2 3 3 4 3 3 2 2 3 4 6
1 1 0 0 0 0 0 1 1 2 2 2 2 2 1 1 1 1 2 2 3 3 2 1 1 2 2 1 1 2 2 2 2 3 3 3 2 2 3 3 3 3 4
1 1 1 1 0 0 1 1 2 2 2 3 2 2 2 2 2 2 2 2 2 2 2 1 1 1 1 1 1 1 1 2 2 2 3 3 3 3 3 2 3 3 4
1 1 1 1 1 1 1 1 1 2 1 3 3 2 1 2 0 1 2 2 2 2 2 2 2 2 2 2 2 2 2 2 2 2 3 3 3 3 3 3 3 3 4
2 2 1 1 1 1 1 1 1 2 2 3 3 4 3 2 2 2 2 2 2 3 2 2 2 2 2 2 2 3 3 2 2 3 3 3 3 3 3 3 3 4 4
2 2 1 1 1 1 2 2 2 2 2 2 2 4 4 4 3 3 3 2 2 3 3 3 3 3 3 3 3 3 3 2 2 3 3 3 3 3 3 3 3 4 4
2 1 1 1 1 1 1 2 2 2 2 1 1 2 3 3 3 3 2 2 3 3 3 3 3 3 3 3 3 3 3 3 3 3 3 3 3 3 4 3 4 4 4
2 2 1 1 1 1 1 1 2 2 2 2 2 2 1 1 2 2 2 3 3 3 3 3 3 3 3 3 3 3 3 3 3 3 3 3 3 3 4 4 4 4 4
2 1 2 1 1 1 1 2 2 2 2 2 2 2 3 2 3 3 3 3 3 4 4 4 4 4 4 3 3 4 4 4 3 3 3 3 3 4 4 4 4 4 4
2 2 2 2 2 2 2 2 2 2 3 3 3 3 3 2 2 3 3 3 3 3 3 4 4 4 4 4 4 4 4 4 4 4 4 3 3 4 4 4 4 4 3
2 2 2 2 2 2 2 2 3 3 3 3 3 2 3 3 3 3 3 3 3 3 3 3 4 4 4 4 5 5 5 5 5 5 4 4 4 4 4 4 5 4 4
2 2 2 2 2 2 3 3 3 3 3 3 3 3 3 4 4 4 4 3 3 3 3 3 4 5 6 5 4 5 5 5 5 5 7 6 5 5 4 4 5 5 4
2 3 3 3 3 3 3 3 3 4 4 4 4 4 4 4 4 4 4 3 4 4 5 5 4 5 6 7 7 6 7 8 7 5 6 6 6 6 5 5 5 4 4
3 3 3 3 3 3 3 4 4 4 4 4 4 4 4 4 4 4 4 4 4 4 5 5 5 6 7 7 7 8 8 8 8 8 6 6 6 6 6 5 5 5 5
Wind_Direction
233 230 230 229 224 223 220 218 215 212 209 208 206 208 209 209 207 208 211 205 207 209 208 211 215 210 208 208 213 219 224 232 247 260 259 255 254 258 264 264 270 271 269
236 228 229 232 225 225 226 221 216 215 213 211 207 207 209 211 209 209 212 210 210 211 211 211 215 211 215 213 214 219 223 226 236 250 256 256 258 260 267 267 269 269 271
234 224 225 229 226 228 228 223 217 215 214 211 208 209 210 211 212 212 214 214 213 214 212 212 213 210 216 216 217 221 225 226 233 242 254 261 266 266 272 271 271 270 272
231 223 223 227 229 229 227 223 219 216 214 212 213 214 214 213 215 214 214 218 217 217 216 218 216 214 215 215 218 221 222 226 229 237 249 257 261 265 265 269 273 268 274
224 224 230 232 231 228 225 223 221 220 219 215 216 218 216 215 216 213 212 217 218 218 219 221 222 220 219 217 217 217 217 222 226 234 245 251 250 250 251 258 268 280 276
222 226 228 225 223 226 226 220 219 219 218 215 218 219 220 220 214 210 209 214 216 216 217 219 219 217 218 220 224 226 224 222 225 232 241 244 251 251 253 252 262 275 273
234 236 229 224 222 225 224 216 217 216 214 217 220 220 224 223 215 212 210 214 217 220 217 214 216 216 213 217 224 231 237 238 236 237 241 247 252 247 245 252 253 258 269
240 241 241 233 231 226 221 225 226 222 219 219 217 217 221 222 213 212 206 214 219 224 223 219 215 216 216 216 222 230 239 242 241 242 247 254 256 250 240 252 260 268 276
261 260 252 238 229 225 224 226 224 221 224 222 219 216 218 223 212 208 202 200 208 221 227 226 220 221 217 214 218 228 239 247 245 240 247 254 255 250 244 241 243 256 269
270 272 272 249 231 228 229 225 219 212 216 210 218 224 216 223 210 207 206 201 206 213 217 223 224 221 219 213 218 220 233 245 244 246 249 256 254 245 236 239 239 244 258
294 290 288 272 250 241 230 216 201 185 175 179 182 212 227 236 214 211 213 205 211 214 215 219 218 218 226 223 225 228 238 246 239 243 252 254 254 246 243 243 245 243 245
319 310 308 307 282 254 194 183 174 175 172 192 195 226 254 258 246 223 220 211 205 212 220 224 217 212 225 233 231 233 231 225 229 236 246 246 247 248 249 250 252 255 257
335 311 320 343 330 330 189 183 176 186 199 209 207 228 248 248 236 223 223 220 225 225 222 218 226 222 226 230 233 245 234 230 232 238 246 257 264 260 253 253 252 255 262
280 281 296 303 340 359 248 216 208 205 208 210 214 225 237 243 237 219 214 217 225 228 234 221 224 231 223 228 236 237 241 250 250 253 263 272 275 259 249 248 254 260 265
272 273 286 270 225 219 226 229 226 237 228 218 222 222 220 232 242 224 194 198 209 219 206 193 201 206 222 236 243 247 245 249 252 263 265 269 270 265 264 264 257 255 256
249 253 250 244 234 230 225 301 310 274 264 248 252 246 258 267 314 204 217 213 196 179 171 202 214 222 232 240 248 253 249 250 260 264 261 260 262 266 267 262 260 256 261
249 253 250 240 227 225 228 230 265 300 298 282 269 262 258 261 255 245 239 230 204 184 203 220 226 234 240 243 245 247 252 258 260 254 258 263 266 265 265 262 260 263 267
255 253 251 251 238 230 234 242 245 247 269 286 289 276 270 266 260 253 238 217 223 214 225 230 232 236 243 247 251 258 260 256 251 252 255 257 260 262 263 263 260 264 271
246 245 246 261 255 239 234 234 239 247 256 278 296 294 290 268 257 255 228 230 235 229 226 234 237 238 242 245 247 252 256 260 260 253 253 256 256 257 260 263 266 269 268
252 252 241 242 238 228 223 225 234 242 252 259 268 278 275 246 235 237 236 238 240 243 235 235 239 242 243 244 244 246 250 253 257 258 259 254 250 250 256 258 260 266 268
253 245 235 232 225 225 226 231 234 238 246 256 264 268 258 241 244 242 240 238 239 245 244 239 239 239 238 238 239 242 246 249 249 249 254 260 256 248 251 255 259 260 268
239 235 232 230 229 227 232 234 235 239 248 257 270 269 261 258 257 257 256 260 256 249 251 247 242 238 235 234 233 236 241 246 247 246 248 248 252 255 253 252 257 260 262
236 229 225 229 230 232 236 239 240 245 252 258 263 263 256 256 257 259 261 265 265 262 259 254 246 243 241 238 237 235 237 241 242 239 240 243 242 245 251 253 252 256 257
235 228 228 231 232 233 237 243 246 248 251 255 257 257 257 259 261 263 264 267 267 265 261 258 253 251 252 252 247 243 242 244 242 236 233 235 237 240 243 250 253 253 252
238 235 233 235 236 239 243 247 249 251 252 250 251 255 259 262 263 264 264 264 266 266 267 264 254 251 254 256 257 256 254 251 246 237 229 228 231 234 237 244 249 252 247
247 245 244 242 241 240 241 245 248 250 253 255 252 251 253 256 260 263 265 266 269 270 272 266 259 261 264 262 263 265 261 252 245 237 229 226 226 229 230 234 239 244 243